Date String (YYYY-MM-DD hh:mm:ss) UTC,Instrument flags,Ambient pressure (hPa),Sample flow (lpm),Bypass flow (lpm),Sample temperature (°C),Ambient temperature (°C),ASC tube jacket temperature (°C),LED temperature (°C),Box temperature (°C),Sample RH (%),Span deviation,Mass concentration (μg/m³),Mass concentration (μg/m³),Mass concentration (μg/m³)
DateTimeUTC,F1_M11,P_M11,Q1_M11,Q2_M11,T1_M11,T2_M11,T3_M11,T4_M11,T5_M11,U1_M11,ZSPAN_M11,X0_M11,X2_M11,X1_M11
2022-12-30 10:00:00,,0820.1,4.99,0.00,21.8,20.5,00.0,30.7,23.5,07.2,0000.0,0007.73,0001.70,0001.14
2022-12-30 10:01:00,,0820.2,4.98,0.00,21.9,21.6,00.0,30.7,23.8,07.2,0000.0,0007.12,0001.78,0001.21
2022-12-30 10:02:00,,0820.2,4.96,0.00,22.0,22.6,00.0,30.7,24.1,07.3,0000.0,0007.38,0001.85,0001.29
2022-12-30 10:03:00,,0820.1,5.04,0.00,22.2,22.7,00.0,30.8,24.2,07.3,0000.0,0007.54,0001.95,0001.39
2022-12-30 10:04:00,,0820.0,5.02,0.00,22.2,22.3,00.0,30.8,24.1,07.4,0000.0,0007.63,0002.07,0001.50
2022-12-30 10:05:00,,0820.1,4.96,0.00,22.2,21.9,00.0,30.9,24.1,07.3,0000.0,0007.12,0002.14,0001.59
2022-12-30 10:06:00,,0820.0,5.00,0.00,22.2,21.5,00.0,30.9,24.0,07.3,0000.0,0006.66,0002.10,0001.57
2022-12-30 10:07:00,,0820.1,5.02,0.00,22.2,21.2,00.0,30.9,23.9,06.9,0000.0,0006.33,0001.96,0001.49
2022-12-30 10:08:00,,0820.0,5.00,0.00,22.2,21.0,00.0,30.9,23.8,06.9,0000.0,0005.97,0001.82,0001.39
2022-12-30 10:09:00,,0820.0,4.96,0.00,22.1,20.8,00.0,30.9,23.8,07.0,0000.0,0005.00,0001.71,0001.33
2022-12-30 10:10:00,,0820.1,4.98,0.00,22.1,20.7,00.0,30.9,23.8,07.1,0000.0,0004.13,0001.62,0001.29
2022-12-30 10:11:00,,0820.1,5.03,0.00,22.1,20.6,00.0,30.9,23.8,07.1,0000.0,0004.06,0001.58,0001.26
2022-12-30 10:12:00,,0820.1,5.00,0.00,22.1,20.6,00.0,30.9,23.8,07.2,0000.0,0004.01,0001.55,0001.26
2022-12-30 10:13:00,,0820.1,5.02,0.00,22.1,20.6,00.0,30.9,23.8,07.2,0000.0,0003.84,0001.58,0001.25
2022-12-30 10:14:00,,0820.2,4.98,0.00,22.0,20.6,00.0,30.9,23.7,07.3,0000.0,0003.82,0001.60,0001.24
2022-12-30 10:15:00,,0820.2,5.00,0.00,22.0,20.5,00.0,30.9,23.7,07.3,0000.0,0003.67,0001.57,0001.23
2022-12-30 10:16:00,,0820.2,5.04,0.00,22.0,20.5,00.0,30.9,23.7,07.3,0000.0,0003.65,0001.55,0001.19
2022-12-30 10:17:00,,0820.1,5.01,0.00,22.0,20.5,00.0,30.9,23.7,07.3,0000.0,0003.61,0001.52,0001.18
2022-12-30 10:18:00,,0820.1,4.96,0.00,22.0,20.5,00.0,30.9,23.7,07.4,0000.0,0003.48,0001.51,0001.19
2022-12-30 10:19:00,,0820.1,4.97,0.00,22.0,21.0,00.0,30.8,23.8,07.3,0000.0,0003.70,0001.54,0001.21
2022-12-30 10:20:00,,0820.1,5.03,0.00,22.1,22.2,00.0,30.8,24.1,07.3,0000.0,0003.95,0001.54,0001.22
2022-12-30 10:21:00,,0820.2,5.03,0.00,22.2,23.0,00.0,30.8,24.3,07.2,0000.0,0002.93,0001.57,0001.23
2022-12-30 10:22:00,,0820.2,4.96,0.00,22.3,22.7,00.0,30.9,24.3,07.2,0000.0,0002.85,0001.57,0001.24
2022-12-30 10:23:00,,0820.2,5.00,0.00,22.4,22.3,00.0,31.0,24.3,07.2,0000.0,0002.83,0001.58,0001.25
2022-12-30 10:24:00,,0820.2,5.03,0.00,22.3,21.9,00.0,31.0,24.2,07.2,0000.0,0002.74,0001.56,0001.26
2022-12-30 10:25:00,,0820.2,5.04,0.00,22.3,21.6,00.0,31.0,24.1,07.5,0000.0,0003.48,0001.61,0001.28
2022-12-30 10:26:00,,0820.2,4.98,0.00,22.3,21.4,00.0,31.0,24.1,07.5,0000.0,0003.91,0001.65,0001.28
2022-12-30 10:27:00,,0820.2,4.99,0.00,22.3,21.2,00.0,31.1,24.1,07.5,0000.0,0004.28,0001.70,0001.27
2022-12-30 10:28:00,,0820.2,4.97,0.00,22.3,21.1,00.0,31.1,24.0,07.5,0000.0,0004.53,0001.74,0001.26
2022-12-30 10:29:00,,0820.2,5.01,0.00,22.3,21.0,00.0,31.1,24.0,07.3,0000.0,0004.63,0001.74,0001.23
2022-12-30 10:30:00,,0820.2,5.03,0.00,22.3,20.9,00.0,31.1,24.0,07.1,0000.0,0004.64,0001.72,0001.19
2022-12-30 10:31:00,,0820.0,4.98,0.00,22.3,20.9,00.0,31.1,24.0,07.2,0000.0,0004.38,0001.73,0001.17
2022-12-30 10:32:00,,0820.0,4.97,0.00,22.2,20.8,00.0,31.1,23.9,07.1,0000.0,0005.75,0001.68,0001.15
2022-12-30 10:33:00,,0820.0,5.02,0.00,22.2,20.8,00.0,31.1,23.9,07.1,0000.0,0005.84,0001.65,0001.12
2022-12-30 10:34:00,,0820.0,5.03,0.00,22.2,20.7,00.0,31.0,23.9,07.0,0000.0,0005.86,0001.63,0001.08
2022-12-30 10:35:00,,0820.0,4.99,0.00,22.2,20.7,00.0,31.0,23.8,07.0,0000.0,0005.74,0001.56,0001.03
2022-12-30 10:36:00,,0820.0,4.95,0.00,22.1,20.6,00.0,31.0,23.8,07.0,0000.0,0004.79,0001.40,0000.96
2022-12-30 10:37:00,,0819.9,4.99,0.00,22.1,20.6,00.0,31.0,23.8,07.0,0000.0,0004.34,0001.31,0000.90
2022-12-30 10:38:00,,0819.9,5.07,0.00,22.1,20.9,00.0,31.0,23.8,06.9,0000.0,0003.89,0001.21,0000.85
2022-12-30 10:39:00,,0819.9,5.00,0.00,22.2,22.0,00.0,30.9,24.1,06.8,0000.0,0003.57,0001.13,0000.80
2022-12-30 10:40:00,,0819.9,4.97,0.00,22.3,22.8,00.0,31.0,24.3,06.7,0000.0,0003.37,0001.06,0000.76
2022-12-30 10:41:00,,0819.9,5.02,0.00,22.4,22.8,00.0,31.0,24.4,06.8,0000.0,0003.13,0000.98,0000.73
2022-12-30 10:42:00,,0820.0,5.02,0.00,22.5,22.4,00.0,31.1,24.3,06.9,0000.0,0002.93,0000.90,0000.70
2022-12-30 10:43:00,,0820.0,4.99,0.00,22.4,22.0,00.0,31.1,24.3,06.9,0000.0,0001.36,0000.90,0000.68
2022-12-30 10:44:00,,0820.0,4.98,0.00,22.4,21.6,00.0,31.1,24.2,06.9,0000.0,0001.37,0000.92,0000.68
2022-12-30 10:45:00,,0820.0,4.98,0.00,22.4,21.3,00.0,31.2,24.1,06.8,0000.0,0001.35,0000.92,0000.67
2022-12-30 10:46:00,,0819.9,5.03,0.00,22.3,21.1,00.0,31.1,24.0,06.8,0000.0,0001.41,0000.94,0000.67
2022-12-30 10:47:00,,0820.0,5.04,0.00,22.3,21.0,00.0,31.1,24.0,06.7,0000.0,0001.43,0000.95,0000.65
2022-12-30 10:48:00,,0819.9,4.98,0.00,22.3,20.9,00.0,31.1,24.0,06.7,0000.0,0001.38,0000.94,0000.64
2022-12-30 10:49:00,,0819.9,4.98,0.00,22.3,20.8,00.0,31.1,24.0,06.6,0000.0,0001.31,0000.89,0000.64
2022-12-30 10:50:00,,0819.9,4.96,0.00,22.3,20.8,00.0,31.1,24.0,06.6,0000.0,0001.24,0000.86,0000.64
2022-12-30 10:51:00,,0819.9,5.01,0.00,22.2,20.8,00.0,31.1,23.9,06.6,0000.0,0001.19,0000.83,0000.64
2022-12-30 10:52:00,,0819.9,5.01,0.00,22.2,20.7,00.0,31.1,23.9,06.4,0000.0,0001.21,0000.84,0000.64
2022-12-30 10:53:00,,0819.9,4.99,0.00,22.2,20.7,00.0,31.1,23.9,06.3,0000.0,0001.26,0000.86,0000.62
2022-12-30 10:54:00,,0819.9,4.97,0.00,22.2,20.7,00.0,31.1,23.8,06.4,0000.0,0001.25,0000.84,0000.61
2022-12-30 10:55:00,,0819.9,4.97,0.00,22.2,20.7,00.0,31.1,23.8,06.2,0000.0,0001.17,0000.80,0000.57
2022-12-30 10:56:00,,0820.0,5.02,0.00,22.2,21.4,00.0,31.0,24.0,06.5,0000.0,0001.09,0000.75,0000.56
2022-12-30 10:57:00,,0819.9,5.02,0.00,22.3,22.5,00.0,31.0,24.3,06.4,0000.0,0001.00,0000.70,0000.54
2022-12-30 10:58:00,,0819.9,5.00,0.00,22.4,23.0,00.0,31.0,24.5,06.5,0000.0,0000.97,0000.68,0000.54
2022-12-30 10:59:00,,0819.8,4.97,0.00,22.5,22.7,00.0,31.1,24.5,06.2,0000.0,0000.94,0000.65,0000.53
